Flag for U.S.A. Weather past 2 weeks in Bloomington, Illinois, U.S.A.

Now
34 °F

Overcast.


Feels Like: 24 °F
Forecast: 32 / 44 °F
Wind: 15 mph from Southeast

Location: Bloomington / Normal

Current Time: Dec 22, 2014 at 6:18:56 AM

Latest Report: Dec 22, 2014 at 5:56 AM


Visibility: 9 mi

Pressure: 29.92 "Hg

Humidity: 85%

Dew point: 30 °F

Location of BloomingtonLocation

Historic Weather in Bloomington — Graph

°F

Bloomington temperature yesterday

Maximum temperature yesterday: 38 °F (at 11:56 AM)
Minimum temperature yesterday: 32 °F (at 1:56 AM)
Average temperature yesterday: 34 °F

Past Weeks' High & Low Weather Summary

 TemperatureHumidityPressure
High49 °F (Dec 13, 1:56 PM)100% (Dec 8, 8:04 AM)30.66 "Hg (Dec 8, 8:04 AM)
Low18 °F (Dec 19, 4:56 AM)69% (Dec 19, 1:56 PM)29.66 "Hg (Dec 16, 12:00 AM)
Average33 °F90%30.24 "Hg
* Reported Dec 7 4:56 AM — Dec 22 4:56 AM, Bloomington, Weather by CustomWeather, © 2014

Note: Actual official high and low records may vary slightly from our data, if they occured in-between our weather recording intervals... More about our weather records

Advertising

Bloomington weather history for previous 24 hours

 ConditionsComfort  
Time TempWeatherWind HumidityBarometerVisibility
4:56 AM
Dec 22
33 °FOvercast.9 mph89%29.93 "Hg7 mi
3:56 AM33 °FMostly cloudy.10 mph89%29.97 "Hg7 mi
2:56 AM33 °FOvercast.12 mph89%29.98 "Hg8 mi
1:56 AM33 °FOvercast.10 mph89%29.99 "Hg7 mi
12:56 AM33 °FOvercast.12 mph89%30.00 "Hg7 mi
11:56 PM
Dec 21
34 °FOvercast.13 mph89%30.01 "Hg7 mi
10:56 PM33 °FPassing clouds.14 mph89%30.03 "Hg7 mi
9:56 PM33 °FPassing clouds.17 mph89%30.04 "Hg7 mi
8:56 PM33 °FOvercast.12 mph89%30.07 "Hg9 mi
7:56 PM33 °FPassing clouds.10 mph89%30.08 "Hg10 mi
6:56 PM34 °FClear.13 mph85%30.09 "Hg10 mi
5:56 PM35 °FOvercast.13 mph89%30.09 "Hg10 mi
4:56 PM34 °FOvercast.7 mph92%30.11 "Hg8 mi
3:56 PM35 °FOvercast.12 mph89%30.11 "Hg8 mi
2:56 PM36 °FOvercast.13 mph82%30.11 "Hg8 mi
1:56 PM36 °FOvercast.13 mph85%30.13 "Hg8 mi
12:56 PM38 °FPartly sunny.15 mph79%30.15 "Hg10 mi
11:56 AM38 °FOvercast.14 mph82%30.19 "Hg10 mi
10:56 AM36 °FFog.14 mph85%30.23 "Hg5 mi
9:56 AM35 °FFog.15 mph89%30.25 "Hg5 mi
8:56 AM33 °FFog.15 mph93%30.25 "Hg4 mi
7:56 AM32 °FIce fog.9 mph92%30.26 "Hg4 mi
6:56 AM32 °FIce fog.8 mph92%30.27 "Hg5 mi
Weather by CustomWeather, © 2014

See weather overviewHow to use our weather pages